Flag for Germany Weather past 2 weeks in Nürburg, Rhineland-Palatinate, Germany

Now
46 °F

Overcast.


Feels Like: 43 °F
Forecast: 46 / 61 °F
Wind: 6 mph from Northeast

Location: Nuerburg-Barweiler


UV Index: 3 (Moderate)

Visibility: 17 mi


Pressure: 30.01 "Hg

Humidity: 69%

Dew point: 36 °F

Location of NürburgLocation

Historic Weather in Nürburg

°F

Nürburg temperature yesterday

Maximum temperature yesterday: 49 °F (at 2:00 AM)
Minimum temperature yesterday: 38 °F (at 12:00 PM)
Average temperature yesterday: 43 °F

Past Weeks' High & Low Weather Summary

 TemperatureHumidityPressure
High65 °F (Apr 7, 6:00 PM)100% (Apr 6, 6:00 AM)30.46 "Hg (Apr 6, 6:00 AM)
Low31 °F (Apr 16, 7:00 AM)28% (Apr 17, 6:00 PM)29.75 "Hg (Apr 4, 4:00 PM)
Average47 °F74%30.11 "Hg
* Reported Apr 4 11:00 AM — Apr 19 11:00 AM, Nürburg, Weather by CustomWeather, © 2014

Note: Actual official high and low records may vary slightly from our data, if they occured in-between our weather recording intervals... More about our weather records

Advertising

Historic Weather Conditions — Data for Previous 24 hours

 ConditionsComfort  
Time TempWeatherWind HumidityBarometerVisibility
11:00 AM
Apr 19
43 °FOvercast.6 mph78%30.03 "Hg10 mi
10:00 AM42 °FScattered clouds.5 mph82%30.03 "Hg7 mi
9:00 AM39 °FLow clouds.5 mph91%30.04 "Hg6 mi
8:00 AM38 °FFog.3 mph95%30.03 "Hg4 mi
7:00 AM37 °FFog.2 mph95%30.02 "Hg4 mi
6:00 AM37 °FLow clouds.2 mph94%30.01 "Hg6 mi
5:00 AM38 °FFog.3 mph93%30.01 "Hg3 mi
4:00 AM38 °FFog.3 mph93%30.00 "Hg3 mi
3:00 AM37 °FLow clouds.3 mph91%30.00 "Hg6 mi
2:00 AM38 °FPassing clouds.3 mph88%30.01 "Hg11 mi
1:00 AM40 °FOvercast.5 mph80%30.00 "Hg19 mi
12:00 AM41 °FOvercast.5 mph81%30.00 "Hg19 mi
11:00 PM
Apr 18
42 °FOvercast.6 mph78%29.99 "Hg25 mi
10:00 PM42 °FPassing clouds.6 mph75%29.99 "Hg37 mi
9:00 PM44 °FOvercast.6 mph67%29.97 "Hg43 mi
8:00 PM46 °FScattered clouds.7 mph57%29.95 "Hg43 mi
7:00 PM47 °FPassing clouds.6 mph49%29.95 "Hg43 mi
6:00 PM45 °FScattered clouds.9 mph56%29.96 "Hg43 mi
5:00 PM46 °FPassing clouds.8 mph55%29.96 "Hg43 mi
4:00 PM46 °FScattered clouds.8 mph54%29.96 "Hg43 mi
3:00 PM47 °FScattered clouds.9 mph58%29.96 "Hg37 mi
2:00 PM46 °FScattered clouds.8 mph59%29.96 "Hg34 mi
1:00 PM45 °FPartly sunny.7 mph72%29.96 "Hg28 mi
12:00 PM38 °FScattered clouds.5 mph94%29.99 "Hg16 mi
Weather by CustomWeather, © 2014

See weather overview